Terug naar catalogus

HULIANWANG DIGUI-95

ActiefCommunicatieLEO
NORAD 66003·PAYLOAD·🇨🇳 China

Gelanceerd Oct 16, 2025 vanaf Wenchang Space Launch Site

Loading…

Volgende Passages (komende 24 uur)

TLE

VersSource: Space-Track

Epoch: Sep 14, 2026, 13:40 UTC

1 66003U 25231J   26257.57011362 -.00000097  00000-0  57337-4 0  9991
2 66003  50.0019 214.8159 0000310  33.6585 326.4307 13.29327300 44784

Volg HULIANWANG DIGUI-95 in realtime met AllMySat

Download on the App Store